• In Deutschland
  • Länderverzeichnis
  • Für 7 Tage
  • Wassertemperatur
  • Satellitenkarten
  • Wetterkarte
  • Widgets
  • user-avatar
    Anmelden

    Stündliche Wetter Vaduz

    Heute, 26 September, Dienstag

    Zeit Temperatur Niederschläge Wind Luftdruck Luftfeuchtigkeit
    00:00 +9°C° 0 mm 1 m/S 708 mmHg 90%
    01:00 +9°C° 0 mm 1 m/S 708 mmHg 89%
    02:00 +9°C° 0 mm 1 m/S 708 mmHg 89%
    03:00 +8°C° 0 mm 0 m/S 708 mmHg 89%
    04:00 +7°C° 0 mm 0 m/S 708 mmHg 90%
    05:00 +7°C° 0 mm 0 m/S 708 mmHg 89%
    06:00 +8°C° 0 mm 0 m/S 708 mmHg 89%
    07:00 +8°C° 0 mm 0 m/S 708 mmHg 89%
    08:00 +10°C° 0 mm 0 m/S 709 mmHg 83%
    09:00 +12°C° 0 mm 0 m/S 709 mmHg 76%
    10:00 +15°C° 0 mm 0 m/S 709 mmHg 70%
    11:00 +18°C° 0 mm 1 m/S 709 mmHg 66%
    12:00 +19°C° 0 mm 1 m/S 709 mmHg 62%
    13:00 +20°C° 0 mm 1 m/S 709 mmHg 57%
    14:00 +20°C° 0,1 mm 1 m/S 709 mmHg 59%
    15:00 +19°C° 0,1 mm 1 m/S 709 mmHg 61%
    16:00 +19°C° 0,1 mm 1 m/S 709 mmHg 63%
    17:00 +16°C° 0 mm 1 m/S 709 mmHg 71%
    18:00 +14°C° 0 mm 1 m/S 709 mmHg 79%
    19:00 +12°C° 0 mm 1 m/S 709 mmHg 87%
    20:00 +12°C° 0 mm 1 m/S 709 mmHg 89%
    21:00 +11°C° 0 mm 1 m/S 710 mmHg 90%
    22:00 +10°C° 0 mm 1 m/S 710 mmHg 92%
    23:00 +10°C° 0 mm 1 m/S 710 mmHg 92%

    Morgen, 27 September, Mittwoch

    Zeit Temperatur Niederschläge Wind Luftdruck Luftfeuchtigkeit
    00:00 +9°C° 0 mm 0 m/S 710 mmHg 92%
    01:00 +9°C° 0 mm 0 m/S 710 mmHg 92%
    02:00 +8°C° 0 mm 0 m/S 710 mmHg 92%
    03:00 +8°C° 0 mm 0 m/S 710 mmHg 92%
    04:00 +8°C° 0 mm 0 m/S 710 mmHg 93%
    05:00 +8°C° 0 mm 0 m/S 710 mmHg 92%
    06:00 +8°C° 0 mm 0 m/S 710 mmHg 92%
    07:00 +8°C° 0 mm 0 m/S 710 mmHg 92%
    08:00 +11°C° 0 mm 0 m/S 711 mmHg 85%
    09:00 +13°C° 0 mm 0 m/S 711 mmHg 78%
    10:00 +16°C° 0 mm 1 m/S 711 mmHg 72%
    11:00 +19°C° 0 mm 1 m/S 711 mmHg 68%
    12:00 +20°C° 0 mm 1 m/S 711 mmHg 64%
    13:00 +21°C° 0 mm 1 m/S 711 mmHg 60%
    14:00 +20°C° 0,1 mm 1 m/S 711 mmHg 62%
    15:00 +20°C° 0,1 mm 1 m/S 711 mmHg 64%
    16:00 +20°C° 0,1 mm 1 m/S 711 mmHg 67%
    17:00 +18°C° 0,1 mm 1 m/S 711 mmHg 74%
    18:00 +15°C° 0,1 mm 1 m/S 711 mmHg 82%
    19:00 +13°C° 0,1 mm 1 m/S 711 mmHg 89%
    20:00 +13°C° 0 mm 1 m/S 711 mmHg 90%
    21:00 +12°C° 0 mm 1 m/S 711 mmHg 91%
    22:00 +12°C° 0 mm 1 m/S 711 mmHg 92%
    23:00 +11°C° 0 mm 1 m/S 711 mmHg 92%

    übermorgen, 28 September, Donnerstag

    Zeit Temperatur Niederschläge Wind Luftdruck Luftfeuchtigkeit
    00:00 +11°C° 0 mm 1 m/S 711 mmHg 92%
    01:00 +11°C° 0 mm 1 m/S 711 mmHg 92%
    02:00 +11°C° 0 mm 1 m/S 711 mmHg 91%
    03:00 +11°C° 0 mm 1 m/S 711 mmHg 91%
    04:00 +11°C° 0 mm 1 m/S 712 mmHg 91%
    05:00 +11°C° 0 mm 1 m/S 712 mmHg 91%
    06:00 +11°C° 0 mm 1 m/S 712 mmHg 90%
    07:00 +11°C° 0 mm 1 m/S 712 mmHg 90%
    08:00 +13°C° 0 mm 1 m/S 712 mmHg 83%
    09:00 +15°C° 0 mm 1 m/S 713 mmHg 77%
    10:00 +18°C° 0 mm 1 m/S 713 mmHg 71%
    11:00 +19°C° 0 mm 1 m/S 713 mmHg 67%
    12:00 +20°C° 0 mm 1 m/S 713 mmHg 64%
    13:00 +21°C° 0 mm 1 m/S 713 mmHg 60%
    14:00 +21°C° 0 mm 1 m/S 713 mmHg 62%
    15:00 +21°C° 0 mm 1 m/S 713 mmHg 64%
    16:00 +21°C° 0 mm 1 m/S 712 mmHg 66%
    17:00 +19°C° 0 mm 1 m/S 712 mmHg 73%
    18:00 +16°C° 0 mm 1 m/S 712 mmHg 80%
    19:00 +14°C° 0 mm 1 m/S 712 mmHg 87%
    20:00 +13°C° 0 mm 1 m/S 712 mmHg 88%
    21:00 +13°C° 0 mm 1 m/S 712 mmHg 89%
    22:00 +13°C° 0 mm 1 m/S 712 mmHg 90%
    23:00 +12°C° 0 mm 1 m/S 712 mmHg 90%

    29 September, Freitag

    Zeit Temperatur Niederschläge Wind Luftdruck Luftfeuchtigkeit
    00:00 +12°C° 0 mm 1 m/S 712 mmHg 90%
    01:00 +12°C° 0 mm 1 m/S 712 mmHg 90%
    02:00 +12°C° 0 mm 1 m/S 712 mmHg 89%
    03:00 +12°C° 0 mm 1 m/S 712 mmHg 88%
    04:00 +13°C° 0 mm 1 m/S 712 mmHg 88%
    05:00 +13°C° 0 mm 1 m/S 712 mmHg 87%
    06:00 +13°C° 0 mm 1 m/S 712 mmHg 87%
    07:00 +13°C° 0 mm 1 m/S 712 mmHg 87%
    08:00 +14°C° 0 mm 1 m/S 712 mmHg 84%
    09:00 +15°C° 0 mm 1 m/S 712 mmHg 80%
    10:00 +18°C° 0 mm 1 m/S 712 mmHg 77%
    11:00 +18°C° 0,2 mm 1 m/S 712 mmHg 74%
    12:00 +19°C° 0,2 mm 1 m/S 712 mmHg 71%
    13:00 +20°C° 0,2 mm 1 m/S 711 mmHg 68%
    14:00 +20°C° 0,4 mm 1 m/S 711 mmHg 70%
    15:00 +20°C° 0,4 mm 1 m/S 711 mmHg 73%
    16:00 +20°C° 0,4 mm 1 m/S 711 mmHg 75%
    17:00 +18°C° 0,2 mm 1 m/S 711 mmHg 80%
    18:00 +15°C° 0,2 mm 1 m/S 711 mmHg 84%
    19:00 +14°C° 0,2 mm 1 m/S 711 mmHg 89%
    20:00 +13°C° 0 mm 1 m/S 711 mmHg 90%
    21:00 +13°C° 0 mm 1 m/S 711 mmHg 91%
    22:00 +12°C° 0 mm 1 m/S 711 mmHg 92%
    23:00 +12°C° 0 mm 1 m/S 710 mmHg 92%

    30 September, Samstag

    Zeit Temperatur Niederschläge Wind Luftdruck Luftfeuchtigkeit
    00:00 +12°C° 0 mm 1 m/S 710 mmHg 92%
    01:00 +12°C° 0 mm 1 m/S 710 mmHg 92%
    02:00 +11°C° 0 mm 1 m/S 710 mmHg 92%
    03:00 +11°C° 0 mm 1 m/S 709 mmHg 92%
    04:00 +11°C° 0 mm 1 m/S 709 mmHg 92%
    05:00 +11°C° 0 mm 1 m/S 709 mmHg 92%
    06:00 +11°C° 0 mm 1 m/S 709 mmHg 92%
    07:00 +11°C° 0 mm 1 m/S 709 mmHg 92%
    08:00 +13°C° 0 mm 1 m/S 709 mmHg 86%
    09:00 +15°C° 0 mm 1 m/S 709 mmHg 80%
    10:00 +18°C° 0 mm 1 m/S 709 mmHg 74%
    11:00 +19°C° 0 mm 1 m/S 709 mmHg 71%
    12:00 +20°C° 0 mm 1 m/S 709 mmHg 68%
    13:00 +21°C° 0 mm 1 m/S 709 mmHg 64%
    14:00 +21°C° 0,3 mm 1 m/S 708 mmHg 69%
    15:00 +20°C° 0,3 mm 1 m/S 708 mmHg 73%
    16:00 +20°C° 0,3 mm 1 m/S 708 mmHg 77%
    17:00 +18°C° 0,5 mm 1 m/S 708 mmHg 83%
    18:00 +16°C° 0,5 mm 1 m/S 708 mmHg 88%
    19:00 +14°C° 0,5 mm 1 m/S 708 mmHg 94%
    20:00 +14°C° 0,5 mm 1 m/S 708 mmHg 94%
    21:00 +13°C° 0,5 mm 0 m/S 708 mmHg 95%
    22:00 +13°C° 0,5 mm 0 m/S 708 mmHg 95%
    23:00 +13°C° 0,3 mm 0 m/S 708 mmHg 96%

    1 Oktober, Sonntag

    Zeit Temperatur Niederschläge Wind Luftdruck Luftfeuchtigkeit
    00:00 +13°C° 0,3 mm 0 m/S 707 mmHg 96%
    01:00 +13°C° 0,3 mm 0 m/S 707 mmHg 97%
    02:00 +14°C° 0,7 mm 1 m/S 707 mmHg 97%
    03:00 +14°C° 0,7 mm 1 m/S 707 mmHg 97%
    04:00 +14°C° 0,7 mm 1 m/S 707 mmHg 97%
    05:00 +14°C° 1 mm 1 m/S 707 mmHg 97%
    06:00 +14°C° 1 mm 1 m/S 708 mmHg 97%
    07:00 +14°C° 1 mm 1 m/S 708 mmHg 97%
    08:00 +14°C° 0,6 mm 1 m/S 708 mmHg 96%
    09:00 +14°C° 0,6 mm 1 m/S 708 mmHg 96%
    10:00 +14°C° 0,6 mm 2 m/S 708 mmHg 95%
    11:00 +14°C° 0,3 mm 2 m/S 709 mmHg 94%
    12:00 +14°C° 0,3 mm 2 m/S 709 mmHg 93%
    13:00 +14°C° 0,3 mm 2 m/S 709 mmHg 91%
    14:00 +15°C° 0,2 mm 2 m/S 709 mmHg 90%
    15:00 +15°C° 0,2 mm 1 m/S 709 mmHg 89%
    16:00 +15°C° 0,2 mm 1 m/S 709 mmHg 88%
    17:00 +14°C° 0 mm 1 m/S 709 mmHg 91%
    18:00 +13°C° 0 mm 1 m/S 709 mmHg 93%
    19:00 +12°C° 0 mm 1 m/S 709 mmHg 95%
    20:00 +11°C° 0 mm 1 m/S 709 mmHg 96%
    21:00 +11°C° 0 mm 1 m/S 709 mmHg 96%
    22:00 +11°C° 0 mm 1 m/S 709 mmHg 96%
    23:00 +9°C° 0 mm 0 m/S 709 mmHg 96%
    Mehr zeigen